Content
SEND FEEDBACK

Daily
Averages
Monthly
Summary
France

CAEN, FRANCE


Home > Europe > France
Elevation: 220 feet     Latitude: 49 11N     Longitude: 000 27W

WEATHER
 
SELECT A DAY
Number of Records: 227,506;   Date Range: 7/1/96 - 12/25/14
 
SHARE

PRINT THIS DATA

[ ← Previous Day ]
WEATHER ALMANAC - JANUARY 24, 2013
[ Next Day → ]
[ °C ]   °F
Weather ElementAverageHighLow
Temperature36.3 °F39.2 °F (12:00 pm)30.2 °F (10:30 pm)
Dewpoint31.9 °F37.4 °F (12:30 am)23 °F (11:30 pm)
Humidity84.1 %100 % (12:30 am)62 % (7:00 pm)
Barometer29.92 in30.10 in (7:00 pm)29.68 in (1:00 am)
Wind Speed5.7 mph10.4 mph (1:00 pm)
Weather ElementAverage
Visibility5 mi
Wind DirectionENE (53.9 °)

Weather ElementTotal
Precipitation---
Heating Degree Days30.3 (Base 65)
Averaged from 51 records on January 24, 2013
WEATHER CONDITIONS BREAKOUT
WIND DIRECTION BREAKOUT
WEATHER BY HOUR - JANUARY 24, 2013
[ °C ]   °F
Local TimeTemperatureDewpointHumidityBarometerVisibilityWind DirectionWind SpeedGust SpeedPrecipitationEventsConditions
12:30 AM37.4 °F37.4 °F100 %29.71 in2.2 miESE (110°)8.1 mphOvercast
1:00 AM38.0 °F36.0 °F92 %29.72 in2.0 miESE (120°)8.1 mphMist
1:00 AM37.4 °F37.4 °F100 %29.68 inESE (120°)8.1 mphOvercast
1:30 AM37.4 °F37.4 °F100 %29.71 inEast (100°)6.9 mphOvercast
2:00 AM37.4 °F37.4 °F100 %29.71 inEast (100°)6.9 mphOvercast
2:30 AM37.4 °F37.4 °F100 %29.71 inESE (110°)5.8 mphLight Drizzle
3:00 AM37.4 °F37.4 °F100 %29.71 in3.1 miEast (100°)4.6 mphOvercast
3:30 AM37.4 °F35.6 °F93 %29.74 inEast (90°)4.6 mphOvercast
4:00 AM37.4 °F35.6 °F93 %29.74 inENE (70°)3.5 mphOvercast
4:30 AM37.4 °F35.6 °F93 %29.74 in3.1 miENE (60°)4.6 mphOvercast
5:00 AM37.4 °F35.6 °F93 %29.77 in3.1 miEast (80°)5.8 mphOvercast
5:30 AM37.4 °F35.6 °F93 %29.77 in3.7 miEast (80°)3.5 mphOvercast
6:00 AM37.4 °F35.6 °F93 %29.77 inVariable3.5 mphLight Drizzle
6:30 AM37.4 °F35.6 °F93 %29.80 in5.6 miENE (60°)5.8 mphOvercast
7:00 AM37.0 °F35.0 °F88 %29.83 in7.0 miENE (60°)3.5 mphOvercast
7:00 AM37.4 °F35.6 °F93 %29.80 in6.2 miVariable3.5 mphOvercast
7:30 AM37.4 °F35.6 °F93 %29.83 in5.6 miVariable2.3 mphOvercast
8:00 AM37.4 °F35.6 °F93 %29.83 in5.0 miVariable3.5 mphOvercast
8:30 AM37.4 °F35.6 °F93 %29.86 in3.7 miVariable2.3 mphRainLight Rain
9:00 AM37.4 °F35.6 °F93 %29.86 in4.3 miVariable3.5 mphOvercast
9:30 AM37.4 °F35.6 °F93 %29.89 in4.3 miNE (40°)3.5 mphOvercast
10:00 AM37.4 °F35.6 °F93 %29.89 in0.7 miVariable3.5 mphMostly Cloudy
10:30 AM37.4 °F35.6 °F93 %29.92 in3.7 miNorth (10°)4.6 mphOvercast
11:00 AM37.4 °F35.6 °F93 %29.92 in6.2 miNE (50°)6.9 mphOvercast
11:30 AM37.4 °F35.6 °F93 %29.95 in6.2 miNNE (30°)4.6 mphOvercast
12:00 PM39.2 °F35.6 °F87 %29.95 in3.1 miNE (50°)6.9 mphOvercast
12:30 PM39.2 °F35.6 °F87 %29.95 in2.8 miNNE (30°)9.2 mphOvercast
1:00 PM38.0 °F33.0 °F77 %29.98 in4.0 miNNE (20°)10.4 mphPartly Cloudy
1:00 PM37.4 °F33.8 °F87 %29.95 in3.7 miNNE (20°)10.4 mphOvercast
1:30 PM37.4 °F32.0 °F81 %29.98 in3.7 miNE (40°)10.4 mphOvercast
2:00 PM37.4 °F30.2 °F75 %29.98 in5.6 miNNE (30°)10.4 mphOvercast
2:30 PM37.4 °F28.4 °F70 %29.98 in6.2 miNNE (30°)9.2 mphOvercast
3:00 PM37.4 °F28.4 °F70 %29.98 in6.2 miNE (40°)9.2 mphOvercast
3:30 PM37.4 °F26.6 °F65 %29.98 in6.2 miNE (40°)8.1 mphOvercast
4:00 PM37.4 °F28.4 °F70 %30.01 in6.2 miNE (40°)8.1 mphOvercast
4:30 PM37.4 °F28.4 °F70 %30.01 in6.2 miNNE (30°)8.1 mphOvercast
5:00 PM37.4 °F26.6 °F65 %30.04 in6.2 miNNE (30°)6.9 mphOvercast
5:30 PM35.6 °F26.6 °F70 %30.04 in6.2 miNNE (20°)8.1 mphMostly Cloudy
6:00 PM35.6 °F26.6 °F70 %30.06 in6.2 miNorth (360°)6.9 mphPartly Cloudy
6:30 PM33.8 °F26.6 °F75 %30.06 in6.2 miNNW (340°)4.6 mphMostly Cloudy
7:00 PM35.0 °F27.0 °F62 %30.10 in9.0 miNorth (10°)6.9 mphClear
7:00 PM35.6 °F26.6 °F70 %30.06 in6.2 miNorth (10°)6.9 mphOvercast
7:30 PM33.8 °F24.8 °F70 %30.06 in6.2 miNNE (30°)6.9 mphPartly Cloudy
8:00 PM33.8 °F24.8 °F70 %30.06 in6.2 miNNE (30°)4.6 mph
8:30 PM33.8 °F24.8 °F70 %30.09 in6.2 miNE (40°)4.6 mph
9:00 PM33.8 °F24.8 °F70 %30.09 in6.2 miNNE (30°)4.6 mph
9:30 PM32.0 °F24.8 °F75 %30.09 in6.2 miNNE (30°)2.3 mph
10:00 PM32.0 °F24.8 °F75 %30.09 in6.2 miCalm
10:30 PM30.2 °F26.6 °F86 %30.09 in3.7 miCalm
11:00 PM30.2 °F26.6 °F86 %30.09 inCalmMist
11:30 PM30.2 °F23.0 °F75 %30.09 in4.3 miENE (60°)3.5 mph
Hourly data recorded from LFRK, located miles away from Caen, France







STORIES FROM OUR PARTNERS